This is the latest recevied weather packets stored in our database for station/object DH5DY-6. If no packets are shown the sender has not sent any weather packets the latest 10 day(s).
| Time | Temp. | Humidity | Pressure | Rain* | Wind** | Luminosity | Snow |
|---|---|---|---|---|---|---|---|
| 1788044452 | 18.33° C | 81% | 1009.3 hPa | 0 mm | - | 0 W/m² | - |
| 1788042652 | 18.33° C | 80% | 1009.2 hPa | 0 mm | - | 0 W/m² | - |
| 1788041452 | 18.33° C | 81% | 1009.2 hPa | 0 mm | - | 0 W/m² | - |
| 1788040852 | 18.33° C | 81% | 1009.3 hPa | 0 mm | - | 0 W/m² | - |
| 1788039652 | 18.33° C | 80% | 1009.4 hPa | 0 mm | - | 0 W/m² | - |
| 1788039052 | 18.89° C | 80% | 1009.3 hPa | 0 mm | - | 0 W/m² | - |
| 1788037852 | 18.33° C | 80% | 1009.5 hPa | 0 mm | - | 0 W/m² | - |
| 1788037252 | 18.33° C | 81% | 1009.3 hPa | 0 mm | - | 0 W/m² | - |
| 1788036052 | 17.78° C | 84% | 1009.5 hPa | 0 mm | - | 0 W/m² | - |
| 1788034252 | 17.78° C | 82% | 1009.7 hPa | 0 mm | - | 0 W/m² | - |
| 1788033651 | 17.78° C | 82% | 1009.7 hPa | 0 mm | - | 0 W/m² | - |
| 1788032451 | 17.22° C | 84% | 1009.8 hPa | 0 mm | - | 0 W/m² | - |
| 1788031851 | 17.22° C | 84% | 1009.9 hPa | 0 mm | - | 0 W/m² | - |
| 1788030651 | 17.78° C | 84% | 1009.9 hPa | 0 mm | - | 0 W/m² | - |
| 1788028851 | 18.89° C | 78% | 1010 hPa | 0 mm | - | 0 W/m² | - |
| 1788028326 | 18.89° C | 75% | 1009.8 hPa | 0 mm | - | 0 W/m² | - |
| 1788028251 | 18.89° C | 75% | 1009.8 hPa | 0 mm | - | 0 W/m² | - |
| 1788026450 | 19.44° C | 73% | 1010 hPa | 0 mm | - | 12 W/m² | - |
| 1788025251 | 19.44° C | 72% | 1010 hPa | 0 mm | - | 14 W/m² | - |
| 1788024651 | 19.44° C | 71% | 1010.1 hPa | 0 mm | - | 19 W/m² | - |
| 1788022850 | 20° C | 70% | 1010.2 hPa | 0 mm | - | 102 W/m² | - |
| 1788001956 | 21.11° C | 66% | 1011.3 hPa | 0 mm | - | 733 W/m² | - |
| 1788000756 | 21.11° C | 68% | 1011.5 hPa | 0 mm | - | 207 W/m² | - |
| 1788000156 | 20.56° C | 71% | 1011.5 hPa | 0 mm | - | 814 W/m² | - |
| 1787998955 | 20.56° C | 74% | 1011.6 hPa | 0 mm | - | 747 W/m² | - |
* Rain latest hour (hover to see other rain measurements)
** Current wind speed in m/s (hover to see current wind gust speed)